Home   Weather   Saint-Denis   Past weeks

Flag for Réunion (French) Past Weather in Saint-Denis, Réunion (French) — Yesterday and Last 2 Weeks

Now
86 °F

Passing clouds.


Feels Like: 91 °F
Forecast: 75 / 85 °F
Wind: 24 mph from East

Location: Saint-Denis / Gillot

Current Time: Jan 24, 2017 at 1:04:46 pm

Latest Report: Jan 24, 2017 at 12:00 pm


Visibility: N/A

Pressure: 29.95 "Hg

Humidity: 59%

Dew Point: 70 °F

Location of Saint-DenisLocation

Past Weather in Saint-Denis — Graph

°F

Saint-Denis Temperature Yesterday

Maximum temperature yesterday: 88 °F (at 12:30 pm)
Minimum temperature yesterday: 77 °F (at 12:30 am)
Average temperature yesterday: 82 °F

High & Low Weather Summary for the Past Weeks

 TemperatureHumidityPressure
High90 °F (Jan 15, 3:00 pm)94% (Jan 9, 8:30 pm)30.07 "Hg (Jan 9, 8:30 pm)
Low72 °F (Jan 13, 6:30 am)41% (Jan 15, 3:30 pm)29.83 "Hg (Jan 13, 5:00 pm)
Average81 °F67%29.98 "Hg
* Reported Jan 9 11:00 am — Jan 24 11:30 am, Saint-Denis, Weather by CustomWeather, © 2017

Note: Actual official high and low records may vary slightly from our data, if they occured in-between our weather recording intervals... More about our weather records

Advertising

Saint-Denis Weather History for the Previous 24 Hours

Scroll right to see more
 ConditionsComfort  
Time TempWeatherWind HumidityBarometerVisibility
11:30 am
Tue, Jan 24
86 °FPassing clouds.24 mph55%29.95 "HgN/A
11:00 am86 °FPassing clouds.24 mph62%29.98 "HgN/A
10:30 am86 °FPassing clouds.21 mph55%29.98 "HgN/A
10:00 am84 °FPassing clouds.18 mph58%29.98 "HgN/A
9:30 am84 °FPassing clouds.21 mph55%29.98 "HgN/A
9:00 am86 °FPassing clouds.18 mph49%29.98 "HgN/A
8:30 am84 °FPassing clouds.14 mph55%29.98 "HgN/A
8:00 am82 °FPassing clouds.16 mph58%29.98 "HgN/A
7:30 am81 °FPassing clouds.14 mph62%29.98 "HgN/A
7:00 am79 °FPassing clouds.12 mph61%29.98 "HgN/A
6:30 am77 °FPassing clouds.12 mph61%29.98 "HgN/A
6:00 am77 °FPassing clouds.12 mph61%29.98 "HgN/A
5:30 am77 °FClear.12 mph65%29.95 "Hg10 mi
5:00 am77 °FPassing clouds.13 mph61%29.95 "HgN/A
4:30 am77 °FPassing clouds.10 mph61%29.95 "HgN/A
4:00 am77 °FPassing clouds.12 mph69%29.95 "HgN/A
3:30 am77 °FPassing clouds.15 mph65%29.95 "HgN/A
3:00 am77 °FPassing clouds.14 mph65%29.95 "HgN/A
2:30 am77 °FPassing clouds.13 mph69%29.98 "HgN/A
2:00 am77 °FWarm.14 mph69%29.98 "HgN/A
1:30 am79 °FWarm.14 mph61%29.98 "HgN/A
1:00 am79 °FPassing clouds.14 mph61%29.98 "HgN/A
12:30 am79 °FPassing clouds.16 mph61%30.01 "HgN/A
12:00 am79 °FWarm.13 mph58%30.01 "HgN/A
11:30 pm
Mon, Jan 23
79 °FWarm.12 mph58%30.01 "HgN/A
11:00 pm79 °FWarm.14 mph61%30.01 "HgN/A
10:30 pm79 °FPassing clouds.12 mph61%30.01 "HgN/A
10:00 pm79 °FClear.14 mph61%30.01 "Hg10 mi
9:30 pm79 °FPassing clouds.15 mph61%30.01 "HgN/A
9:00 pm79 °FPassing clouds.15 mph61%30.01 "HgN/A
8:30 pm79 °FClear.15 mph65%30.01 "Hg10 mi
8:00 pm79 °FClear.13 mph65%30.01 "Hg10 mi
7:30 pm81 °FClear.13 mph62%29.98 "Hg10 mi
7:00 pm81 °FSunny.14 mph70%29.98 "Hg10 mi
6:30 pm82 °FSunny.17 mph62%29.98 "Hg10 mi
6:00 pm84 °FSunny.20 mph58%29.95 "Hg10 mi
5:30 pm86 °FPassing clouds.18 mph55%29.95 "HgN/A
5:00 pm86 °FPassing clouds.21 mph55%29.95 "HgN/A
4:30 pm86 °FPassing clouds.21 mph52%29.95 "HgN/A
4:00 pm86 °FScattered clouds.20 mph59%29.95 "HgN/A
3:30 pm86 °FScattered clouds.21 mph59%29.95 "HgN/A
3:00 pm86 °FScattered clouds.23 mph59%29.98 "HgN/A
2:30 pm88 °FPassing clouds.21 mph55%29.98 "HgN/A
2:00 pm88 °FPassing clouds.22 mph52%29.98 "HgN/A
1:30 pm88 °FPassing clouds.21 mph52%29.98 "HgN/A
1:00 pm88 °FPassing clouds.18 mph55%30.01 "HgN/A
Weather by CustomWeather, © 2017

See weather overviewHow to use our weather pages